Elkins, WV

8:39 AM EST on November 21, 2019 (GMT -0500)
Elkins-Randolph County

Weather History for KEKN - September, 2019

Change the Weather History Date:

Wednesday, September 25, 2019

  Actual Average Record
Temperature  
Mean Temperature 62 °F 59 °F  
Max Temperature 81 °F 70 °F 90 °F (1908)
Min Temperature 44 °F 47 °F 27 °F (1963)
Degree Days  
Heating Degree Days 2 7  
Month to date heating degree days 10 90  
Since 1 July heating degree days 17 120  
Cooling Degree Days 0 1  
Month to date cooling degree days 118 43  
Year to date cooling degree days 789 469  
Growing Degree Days 12 (Base 50)    
Moisture  
Dew Point 45 °F    
Average Humidity 75    
Maximum Humidity 93    
Minimum Humidity 30    
Precipitation  
Precipitation 0.00 in 0.12 in 2.04 in (2000)
Month to date precipitation 0.17 3.06  
Year to date precipitation 37.88 35.87  
Snow  
Snow 0.00 in 0.00 in 0.00 in (2016)
Month to date snowfall 0.0 0.0  
Since 1 September snowfall 0.0 0.0  
Snow Depth 0.00 in    
Sea Level Pressure  
Sea Level Pressure 29.99 in    
Wind  
Wind Speed 1 mph ()    
Max Wind Speed 12 mph    
Max Gust Speed 17 mph    
Visibility 5.8 miles    
Events Fog    
T = Trace of Precipitation, MM = Missing Value Source: Averaged Metar Reports

Daily Weather History Graph

Daily Weather History Graph

Search for Another Location

Airport or City:

Astronomy

Sep. 25, 2019 Rise Set
Actual Time 7:09 AM EDT 7:12 PM EDT
Civil Twilight 6:43 AM EDT 7:38 PM EDT
Nautical Twilight 6:12 AM EDT 8:09 PM EDT
Astronomical Twilight 5:40 AM EDT 8:40 PM EDT
Moon 3:04 AM EDT (9/25) 5:40 PM EDT (9/25)
Length of Visible Light 12h 55m
Length of Day
12h 02m
Waning Crescent, 14% of the Moon is Illuminated
Sep 25
Waning Crescent
Sep 28
New
Oct 5
First Quarter
Oct 13
Full
Oct 21
Last Quarter

Hourly Weather History & Observations

Time (EDT) Temp. Dew Point Humidity Pressure Visibility Wind Dir Wind Speed Gust Speed Precip Events Conditions
12:51 AM 48.0 °F 45.0 °F 89% 30.01 in 10.0 mi Calm Calm - N/A   Clear
1:51 AM 46.9 °F 44.1 °F 90% 29.99 in 10.0 mi Calm Calm - N/A   Clear
2:51 AM 46.9 °F 43.0 °F 86% 30.00 in 6.0 mi Calm Calm - N/A   Clear
3:18 AM 46.0 °F 43.0 °F 89% 30.00 in 1.8 mi Calm Calm - N/A   Clear
3:27 AM 46.0 °F 43.0 °F 89% 30.00 in 2.0 mi Calm Calm - N/A   Partly Cloudy
3:34 AM 46.0 °F 43.0 °F 89% 30.01 in 9.0 mi Calm Calm - N/A   Clear
3:51 AM 45.0 °F 42.1 °F 90% 30.01 in 5.0 mi Calm Calm - N/A   Clear
4:30 AM 44.1 °F 41.0 °F 89% 30.02 in 2.5 mi Calm Calm - N/A   Partly Cloudy
4:35 AM 44.1 °F 41.0 °F 89% 30.02 in 1.2 mi Calm Calm - N/A   Mostly Cloudy
4:51 AM 45.0 °F 42.1 °F 90% 30.03 in 0.2 mi Calm Calm - N/A Fog Fog
5:12 AM 44.1 °F 41.0 °F 89% 30.02 in 0.5 mi Calm Calm - N/A Fog Fog
5:19 AM 44.1 °F 41.0 °F 89% 30.02 in 0.2 mi Calm Calm - N/A Fog Fog
5:51 AM 44.1 °F 41.0 °F 89% 30.03 in 0.2 mi Calm Calm - N/A Fog Fog
6:02 AM 44.1 °F 42.1 °F 93% 30.02 in 0.5 mi Calm Calm - N/A Fog Fog
6:29 AM 44.1 °F 41.0 °F 89% 30.03 in 0.2 mi Calm Calm - N/A Fog Fog
6:51 AM 44.1 °F 42.1 °F 93% 30.04 in 0.2 mi Calm Calm - N/A Fog Fog
7:51 AM 44.1 °F 41.0 °F 89% 30.06 in 0.2 mi Calm Calm - N/A Fog Fog
8:39 AM 46.9 °F 43.0 °F 86% 30.04 in 0.5 mi Calm Calm - N/A Fog Fog
8:51 AM 48.0 °F 44.1 °F 86% 30.05 in 0.2 mi Calm Calm - N/A Fog Fog
9:04 AM 48.9 °F 45.0 °F 86% 30.03 in 1.0 mi Calm Calm - N/A   Overcast
9:11 AM 50.0 °F 46.0 °F 86% 30.03 in 3.0 mi Calm Calm - N/A   Mostly Cloudy
9:28 AM 52.0 °F 46.9 °F 83% 30.04 in 10.0 mi Calm Calm - N/A   Scattered Clouds
9:51 AM 55.9 °F 48.9 °F 77% 30.06 in 10.0 mi Calm Calm - N/A   Clear
10:51 AM 63.0 °F 50.0 °F 63% 30.02 in 10.0 mi WSW 3.5 mph - N/A   Clear
11:51 AM 70.0 °F 50.0 °F 49% 29.99 in 10.0 mi Calm Calm - N/A   Clear
12:51 PM 73.9 °F 48.0 °F 40% 29.95 in 10.0 mi Variable 3.5 mph - N/A   Clear
1:51 PM 77.0 °F 48.0 °F 36% 29.92 in 10.0 mi SE 4.6 mph - N/A   Clear
2:51 PM 78.1 °F 46.9 °F 33% 29.90 in 10.0 mi North 3.5 mph - N/A   Clear
3:51 PM 80.1 °F 46.9 °F 31% 29.89 in 10.0 mi WNW 6.9 mph - N/A   Clear
4:51 PM 80.1 °F 46.0 °F 30% 29.89 in 10.0 mi West 8.1 mph - N/A   Clear
5:51 PM 79.0 °F 46.0 °F 31% 29.88 in 10.0 mi Calm Calm - N/A   Partly Cloudy
6:51 PM 71.1 °F 53.1 °F 53% 29.91 in 10.0 mi SW 3.5 mph - N/A   Clear
7:51 PM 64.0 °F 51.1 °F 63% 29.93 in 10.0 mi East 3.5 mph - N/A   Mostly Cloudy
8:51 PM 60.1 °F 51.1 °F 72% 29.95 in 10.0 mi Calm Calm - N/A   Clear
9:51 PM 55.9 °F 50.0 °F 80% 29.96 in 10.0 mi Calm Calm - N/A   Clear
10:51 PM 55.0 °F 50.0 °F 83% 29.96 in 10.0 mi Calm Calm - N/A   Clear
11:51 PM 53.1 °F 48.9 °F 86% 29.96 in 10.0 mi Calm Calm - N/A   Partly Cloudy